Weather in Sergiyevy-Gorki

Russia / Vladimir Oblast     55°58′57″N   42°06′16″E
temp.,
°C
wind,
m/s
gust,
m/s
humid.,
%
clouds,
%
prec.,
mm/h
press.,
hPa
HPBL,
m
9 december, thu
thu900:00−6n4895100 1.4 1021224
03:00−6n4995100 1.6 1021254
06:00−7n4995100 0.7 1021287
09:00−7n4995100 2.5 1022300
12:00−6n4893100 0.6 1023311
15:00−8n4109342 0.6 1025293
18:00−12n4109520 0.0 1027184
21:00−15n399511 0.0 1028135
10 december, fri
fri1000:00−16n379716 0.0 103095
03:00−17nne379721 0.0 1032106
06:00−17nne369817 0.0 103391
09:00−19nne2410055 0.0 103449
12:00−13ne35925 0.0 1035172
15:00−14ne25955 0.0 103686
18:00−15ene39945 0.0 1037148
21:00−16ene38955 0.0 1037124
11 december, sat
sat1100:00−17ene37955 0.0 1038114
03:00−17ene37945 0.0 1038114
06:00−17ene36955 0.0 103988
09:00−16ene37935 0.0 103997
12:00−11e38875 0.0 1039186
15:00−11e39895 0.0 1039159
18:00−12e410885 0.0 1040152
21:00−13ese310875 0.0 1040150
12 december, sun
sun1200:00−13ese38895 0.0 1040118
03:00−14ese22935 0.0 104026
06:00−14ese25935 0.0 104063
09:00−13se26925 0.0 104085
12:00−8sse288832 0.0 1040233
15:00−10se22959 0.0 104029
18:00−12sse269623 0.0 104066
21:00−12sse269470 0.0 103968
13 december, mon
mon1300:00−14sse239596 0.0 104028
03:00−13sse25925 0.0 103959
06:00−13sse379010 0.0 103887
09:00−12sse389021 0.0 1038109
12:00−8sse31183100 0.0 1037242
15:00−7sse3886100 0.0 1036157
18:00−7sse31086100 0.0 1035201
21:00−7sse31185100 0.0 1034226